Weather History for Campeche, Mexico

Change the Weather History Date:

Friday, October 26, 2012

  Actual Average Record
Temperature  
Mean Temperature 76 °F -  
Max Temperature 86 °F 84 °F 93 °F (1997)
Min Temperature 67 °F 69 °F 64 °F (2007)
Cooling Degree Days 12    
Growing Degree Days 26 (Base 50)    
Moisture  
Dew Point 72 °F    
Average Humidity 79    
Maximum Humidity 100    
Minimum Humidity 53    
Precipitation  
Precipitation 0.00 in - - ()
Sea Level Pressure  
Sea Level Pressure 29.85 in    
Wind  
Wind Speed 3 mph ()    
Max Wind Speed 12 mph    
Max Gust Speed -    
Visibility 6.5 miles    
Events      
Averages and records for this station are not official NWS values.
T = Trace of Precipitation, MM = Missing Value Source: Averaged Metar Reports

Daily Weather History Graph

Daily Weather History Graph

Search for Another Location

Airport:

Trip Planner

Search our weather history database for the weather conditions in past years. The results will help you decide how hot, cold, wet, or windy it might be!

Date:

Astronomy

Oct. 26, 2012 Rise Set
Actual Time 7:00 AM CDT 6:30 PM CDT
Civil Twilight 6:38 AM CDT 6:53 PM CDT
Nautical Twilight 6:12 AM CDT 7:19 PM CDT
Astronomical Twilight 5:46 AM CDT 7:44 PM CDT
Moon 4:30 PM CDT (10/26) 4:17 AM CDT (10/26)
Length of Visible Light 12h 14m
Length of Day
11h 29m
Waxing Gibbous, 91% of the Moon is Illuminated
Oct 26
Waxing Gibbous
Oct 29
Full
Nov 6
Last Quarter
Nov 13
New
Nov 20
First Quarter

Hourly Weather History & Observations

Time (CDT) Temp. Heat Index Dew Point Humidity Pressure Visibility Wind Dir Wind Speed Gust Speed Precip Events Conditions
12:42 AM 75.2 °F - 71.6 °F 89% 29.85 in 7.0 mi Calm Calm - N/A   Clear
12:50 AM 75 °F - 71 °F 83% 29.85 in 4 mi NNE 2.2 mph - -  
1:42 AM 73.4 °F - 71.6 °F 94% 29.85 in 7.0 mi Calm Calm - N/A   Scattered Clouds
2:43 AM 73.4 °F - 71.6 °F 94% 29.83 in 7.0 mi Calm Calm - N/A   Clear
3:40 AM 71.6 °F - 71.6 °F 100% 29.82 in 7.0 mi Calm Calm - N/A   Clear
3:50 AM 71 °F - 70 °F 96% 29.82 in 4 mi Calm Calm - -  
4:41 AM 71.6 °F - 71.6 °F 100% 29.82 in 7.0 mi Calm Calm - N/A   Clear
5:40 AM 71.6 °F - 69.8 °F 94% 29.82 in 7.0 mi Calm Calm - N/A   Clear
6:40 AM - - - N/A% 29.83 in 6.0 mi Calm Calm - N/A   Clear
6:54 AM 67 °F - 65 °F 92% 29.83 in 6 mi Calm Calm - -  
7:42 AM 69.8 °F - 69.8 °F 100% 29.85 in 7.0 mi Calm Calm - N/A   Clear
8:49 AM 77.0 °F - 73.4 °F 89% 29.88 in 7.0 mi Calm Calm - N/A   Clear
9:46 AM 80.6 °F 85.4 °F 73.4 °F 79% 29.89 in 7.0 mi East 4.6 mph - N/A   Partly Cloudy
9:48 AM 82 °F - 73 °F 68% 29.89 in 6 mi Calm Calm - -  
10:54 AM 86.0 °F 93.4 °F 73.4 °F 66% 29.90 in 7.0 mi East 4.6 mph - N/A   Scattered Clouds
11:45 AM 82.4 °F 88.2 °F 73.4 °F 74% 29.88 in 7.0 mi Calm Calm - N/A   Scattered Clouds
12:48 PM 86 °F - 71 °F 53% 29.86 in 6 mi NNW 2.2 mph - -  
12:50 PM 82.4 °F 86.3 °F 69.8 °F 66% 29.87 in 7.0 mi West 6.9 mph - N/A   Scattered Clouds
1:43 PM 82.4 °F 86.3 °F 69.8 °F 66% 29.84 in 7.0 mi West 6.9 mph - N/A   Scattered Clouds
2:44 PM 82.4 °F 86.3 °F 69.8 °F 66% 29.83 in 7.0 mi West 11.5 mph - N/A   Scattered Clouds
3:41 PM 82.4 °F 88.2 °F 73.4 °F 74% 29.82 in 7.0 mi West 11.5 mph - N/A   Scattered Clouds
3:45 PM 85 °F - 73 °F 59% 29.82 in 6 mi WNW 6.7 mph - -  
4:41 PM 82.4 °F 88.2 °F 73.4 °F 74% 29.81 in 7.0 mi West 11.5 mph - N/A   Scattered Clouds
5:42 PM 80.6 °F 85.4 °F 73.4 °F 79% 29.82 in 7.0 mi West 11.5 mph - N/A   Scattered Clouds
6:41 PM 80.6 °F 85.4 °F 73.4 °F 79% 29.84 in 7.0 mi WNW 11.5 mph - N/A   Mostly Cloudy
6:50 PM 82 °F - 72 °F 66% 29.84 in 4 mi NNW 4.5 mph - -   Scattered Clouds
7:40 PM 80.6 °F 84.6 °F 71.6 °F 74% 29.85 in 7.0 mi North 11.5 mph - N/A   Mostly Cloudy
8:43 PM 80.6 °F 85.4 °F 73.4 °F 79% 29.87 in 7.0 mi North 11.5 mph - N/A   Mostly Cloudy
9:42 PM 80.6 °F 84.6 °F 71.6 °F 74% 29.89 in 7.0 mi North 11.5 mph - N/A   Scattered Clouds
9:50 PM 81 °F - 72 °F 67% 29.90 in 4 mi North 4.5 mph - -   Scattered Clouds
10:42 PM 78.8 °F - 73.4 °F 83% 29.90 in 7.0 mi North 11.5 mph - N/A   Scattered Clouds
11:42 PM 77.0 °F - 71.6 °F 83% 29.91 in 7.0 mi NNE 5.8 mph - N/A   Scattered Clouds